GW0980 Weather Reports


Display with metric or nautical units.
time (UTC)temp
F
wind
direction
speed
MPH
gust
MPH
rain 1hr
in
rain 24hr
in
rain mn
in
humidity
%
barometer
mb
20260903023045 60 288 2.0 8.0 0.00 0.11 0.11 74 1008.7
20260903021550 61 301 1.0 5.0 0.00 0.11 0.11 73 1008.6
20260903020053 61 281 3.0 6.0 0.00 0.11 0.11 73 1008.3
20260903014553 61 271 4.0 7.0 0.00 0.11 0.11 73 1008.4
20260903013050 62 303 5.0 10.0 0.00 0.11 0.11 72 1008.3
20260903011600 62 279 1.0 5.0 0.00 0.11 0.11 73 1008.0
20260903010044 62 257 4.0 11.0 0.00 0.11 0.11 73 1008.3
20260903004604 62 285 4.0 9.0 0.00 0.11 0.11 73 1008.1
20260903003049 62 283 2.0 7.0 0.00 0.11 0.11 70 1008.1
20260903001543 63 281 6.0 9.0 0.00 0.11 0.11 68 1008.0
20260903000050 63 279 5.0 10.0 0.00 0.11 0.11 69 1007.8
20260902234551 62 281 3.0 10.0 0.00 0.11 0.11 78 1007.8
20260902233055 61 277 4.0 8.0 0.00 0.11 0.11 78 1007.7
20260902231603 61 304 2.0 7.0 0.00 0.11 0.11 81 1007.6
20260902230049 61 275 3.0 7.0 0.00 0.11 0.11 83 1007.3
20260902224554 59 280 1.0 5.0 0.00 0.11 0.11 86 1007.4
20260902223050 59 0 0.0 1.0 0.00 0.11 0.11 88 1007.1
20260902221551 58 0 0.0 3.0 0.00 0.11 0.11 87 1006.9
20260902220048 58 272 1.0 8.0 0.00 0.11 0.11 87 1006.9
20260902214550 58 302 6.0 12.0 0.00 0.11 0.11 84 1006.7
20260902213053 58 283 4.0 11.0 0.00 0.11 0.11 89 1006.8
20260902211553 58 280 3.0 10.0 0.01 0.11 0.11 91 1006.7
20260902210050 58 288 1.0 5.0 0.01 0.11 0.11 92 1006.4
20260902204551 59 309 0.0 1.0 0.01 0.11 0.11 92 1006.2
20260902203049 59 0 0.0 1.0 0.01 0.11 0.11 93 1006.0
20260902201552 59 0 0.0 1.0 0.00 0.10 0.10 93 1005.9
20260902200048 58 0 0.0 2.0 0.00 0.10 0.10 93 1005.9
20260902194549 58 42 0.0 3.0 0.00 0.09 0.09 93 1005.9
20260902193051 58 106 0.0 4.0 0.00 0.09 0.09 92 1005.9
20260902191549 57 119 0.0 3.0 0.00 0.09 0.09 93 1005.7
20260902190049 57 27 0.0 5.0 0.01 0.09 0.09 93 1005.7
20260902184558 56 46 1.0 4.0 0.02 0.09 0.09 93 1005.8
20260902183049 56 142 0.0 5.0 0.03 0.08 0.08 93 1005.8
20260902181548 56 88 1.0 4.0 0.03 0.08 0.08 92 1005.9
20260902174553 57 0 0.0 5.0 0.03 0.07 0.07 90 1006.1
20260902173050 57 101 1.0 8.0 0.02 0.04 0.04 90 1006.2
20260902171600 57 106 1.0 3.0 0.02 0.04 0.04 90 1006.4
20260902170051 57 58 0.0 4.0 0.02 0.03 0.03 91 1006.6
20260902164549 57 166 0.0 2.0 0.02 0.03 0.03 91 1006.7
20260902163051 57 75 0.0 2.0 0.01 0.02 0.02 91 1006.8
20260902161555 57 89 0.0 3.0 0.02 0.02 0.02 90 1006.8
20260902160055 57 0 0.0 0.0 0.01 0.01 0.01 89 1006.8
20260902154558 57 0 0.0 1.0 0.00 0.00 0.00 88 1006.7
20260902153054 57 0 0.0 0.0 0.00 0.00 0.00 88 1007.0
20260902151548 57 0 0.0 0.0 0.00 0.00 0.00 88 1007.1
20260902150048 57 0 0.0 1.0 0.00 0.00 0.00 88 1007.3
20260902144546 57 0 0.0 0.0 0.00 0.00 0.00 89 1007.4
20260902143049 57 0 0.0 0.0 0.00 0.00 0.00 88 1007.3
20260902141546 57 0 0.0 2.0 0.00 0.00 0.00 87 1007.6
20260902140042 58 0 0.0 2.0 0.00 0.00 0.00 86 1007.8
20260902134551 58 0 0.0 2.0 0.00 0.00 0.00 85 1008.0
20260902133048 58 0 0.0 1.0 0.00 0.00 0.00 84 1008.1
20260902131548 58 0 0.0 3.0 0.00 0.00 0.00 84 1008.0
20260902130058 58 0 0.0 4.0 0.00 0.00 0.00 84 1008.2
20260902124548 57 81 0.0 2.0 0.00 0.00 0.00 86 1008.3
20260902123056 56 0 0.0 0.0 0.00 0.00 0.00 89 1008.6
20260902121559 56 0 0.0 0.0 0.00 0.00 0.00 90 1008.8
20260902120047 56 0 0.0 0.0 0.00 0.00 0.00 90 1008.9
20260902114547 56 300 0.0 0.0 0.00 0.00 0.00 90 1009.3
20260902113103 56 0 0.0 0.0 0.00 0.00 0.00 90 1009.2
20260902111553 56 0 0.0 1.0 0.00 0.00 0.00 90 1009.7
20260902110051 56 0 0.0 0.0 0.00 0.00 0.00 89 1009.7
20260902104553 56 0 0.0 0.0 0.00 0.00 0.00 89 1009.8
20260902103051 57 0 0.0 0.0 0.00 0.00 0.00 89 1009.9
20260902101557 56 0 0.0 1.0 0.00 0.00 0.00 89 1010.1
20260902100104 57 0 0.0 0.0 0.00 0.00 0.00 89 1010.2
20260902094552 57 0 0.0 0.0 0.00 0.00 0.00 88 1010.3
20260902093051 57 0 0.0 1.0 0.00 0.00 0.00 88 1010.2
20260902091548 57 0 0.0 0.0 0.00 0.00 0.00 88 1010.5
20260902090158 57 0 0.0 0.0 0.00 0.00 0.00 88 1010.7
20260902084600 57 0 0.0 1.0 0.00 0.00 0.00 88 1010.8
20260902083048 57 0 0.0 0.0 0.00 0.00 0.00 88 1010.8
20260902081554 57 0 0.0 1.0 0.00 0.00 0.00 88 1010.9
20260902080042 57 0 0.0 1.0 0.00 0.00 0.00 88 1011.1
20260902074549 57 0 0.0 1.0 0.00 0.00 0.00 88 1011.2
20260902073052 57 0 0.0 0.0 0.00 0.00 0.00 87 1011.3
20260902071543 57 0 0.0 0.0 0.00 0.00 0.00 88 1011.4
20260902070052 57 0 0.0 1.0 0.00 0.00 0.00 87 1011.5
20260902064555 58 0 0.0 0.0 0.00 0.00 0.00 86 1011.4
20260902063050 58 0 0.0 0.0 0.00 0.00 0.00 86 1011.7
20260902061604 59 0 0.0 0.0 0.00 0.00 0.00 85 1011.8
20260902060048 59 0 0.0 0.0 0.00 0.00 0.00 84 1011.9
20260902054551 60 0 0.0 0.0 0.00 0.00 0.00 81 1012.0
20260902053050 60 0 0.0 0.0 0.00 0.00 0.00 78 1012.2
20260902051548 61 0 0.0 0.0 0.00 0.00 0.00 77 1012.2
20260902050059 61 0 0.0 0.0 0.00 0.00 0.00 77 1012.0
20260902044553 61 0 0.0 0.0 0.00 0.00 0.00 77 1012.1
20260902043051 61 0 0.0 0.0 0.00 0.00 0.00 76 1012.0
20260902041550 61 0 0.0 0.0 0.00 0.00 0.00 76 1012.0
20260902040048 62 0 0.0 0.0 0.00 0.00 0.00 73 1012.1
20260902034543 62 0 0.0 0.0 0.00 0.00 0.00 73 1012.1
20260902033050 62 0 0.0 3.0 0.00 0.00 0.00 74 1012.0
20260902031550 62 342 2.0 5.0 0.00 0.00 0.00 74 1012.2
20260902030048 61 293 1.0 4.0 0.00 0.00 0.00 75 1012.4
20260902024548 62 0 0.0 3.0 0.00 0.00 0.00 75 1012.1